Location: Amarillo Post Office Jordan Station
(35.1907°N, 101.9342°W)
Time: 13:45:03
(UTC+00:00)

Meteor 1-11 - Pass Details

Date: 24 January 2021
Orbit: 840 x 887 km, 81.2° (Epoch: 03 March)

Event Time Altitude Azimuth Distance (km) Brightness Sun altitude
Rises 12:53:48 0° 351° (N) 3,402 7.1 -12.1°
Reaches altitude 10° 12:56:13 10° 351° (N) 2,463 6.4 -11.6°
Maximum altitude 13:01:48 86° 264° (W) 848 4.2 -10.5°
Drops below altitude 10° 13:07:22 10° 175° (S) 2,456 6.9 -9.4°
Sets 13:09:46 0° 175° (S) 3,392 7.7 -8.9°
